Preview of NWS' New Version of Forecast
This preview is not operational and should not be used for support decisions.

Regional Weather Roundup (RWR)

Issued by National Weather Service (NWS)

                            
000
ASUS44 KMEG 220210
RWRTN 
TENNESSEE HOURLY STATE WEATHER ROUNDUP
NATIONAL WEATHER SERVICE MEMPHIS TN
900 PM CDT SAT SEP 21 2019

TNZ002-004-019-021-049-052-054-088>092-220300-
WEST TENNESSEE
  
CITY           SKY/WX    TMP DP  RH WIND       PRES   REMARKS
MEMPHIS INTL   FAIR      77  61  57 S3        30.12R                  
NWS MEMPHIS      N/A     78 N/A N/A MISG        N/A                   
JACKSON        FAIR      71  61  70 S6        30.15R                  
DYERSBURG      FAIR      77  61  57 SE5       30.14R                  
SOMERVILLE     CLEAR     75  61  60 VRB3      30.13R                  
UNION CITY       N/A     72  61  68 S3        30.12R                  
BOLIVAR        PTCLDY    68  61  77 CALM      30.14R                  
PARIS          CLEAR     72  59  64 S5        30.14R                  
HUNTINGDON     CLEAR     72  61  68 CALM      30.14S                  
LEXINGTON      CLEAR     68  63  83 CALM      30.14S                  
SELMER         CLEAR     70  61  73 CALM      30.15R                  
SAVANNAH       MOCLDY    68  66  94 CALM      30.15R                  
$$

TNZ008-025-027-028-033-062-065-066-220300-
NORTH MIDDLE TENNESSEE
  
CITY           SKY/WX    TMP DP  RH WIND       PRES   REMARKS
NASHVILLE      FAIR      76  55  48 S5        30.17S                  
DICKSON        CLEAR     72  55  56 CALM      30.16S                  
PORTLAND       CLEAR     68  61  77 S5        30.17R                  
CLARKSVILLE    FAIR      71  58  63 CALM      30.15R                  
LEBANON        PTCLDY    72  55  56 CALM      30.15S                  
SMYRNA         FAIR      68  60  75 CALM      30.18S HAZE             
MURFREESBORO   PTCLDY    73  57  56 CALM      30.16S                  
COOKEVILLE     CLEAR     63  57  82 CALM      30.21R                  
LIVINGSTON       N/A     75  55  50 S3        30.21S                  
CROSSVILLE     FAIR      66  56  70 CALM      30.27R                  
ROCKWOOD       CLEAR     66  57  72 W5        30.25R                  
$$

TNZ061-075-076-078-094-096-097-220300-
SOUTH MIDDLE TENNESSEE
  
CITY           SKY/WX    TMP DP  RH WIND       PRES   REMARKS
LAWRENCEBURG   MOCLDY    66  57  72 CALM      30.19R                  
LEWISBURG      CLEAR     66  57  72 CALM      30.18R                  
FAYETTEVILLE   CLEAR     73  55  53 CALM      30.20R                  
TULLAHOMA      CLEAR     66  59  77 CALM      30.20R                  
WINCHESTER     CLEAR     70  54  56 SE6       30.21R                  
MCMINNVILLE    CLEAR     68  57  68 CALM      30.21R                  
COLUMBIA       CLEAR     68  63  83 S3        30.16R                  
SHELBYVILLE    CLEAR     68  57  68 E3        30.19R                  
$$

TNZ017-018-042-046-047-220300-
NORTHEAST TENNESSEE
  
CITY           SKY/WX    TMP DP  RH WIND       PRES   REMARKS
TRI CITIES     FAIR      67  60  78 CALM      30.25R                  
ELIZABETHTON   FAIR      70  61  73 CALM      30.26R                  
GREENEVILLE    CLEAR     75  59  57 CALM      30.24S                  
$$

TNZ012-013-036-069-073-074-220300-
CENTRAL EAST TENNESSEE
  
CITY           SKY/WX    TMP DP  RH WIND       PRES   REMARKS
KNOXVILLE      MOCLDY    77  60  55 CALM      30.21R                  
OAK RIDGE      FAIR      73  61  65 CALM      30.23R                  
DOWNTOWN KNOXV MOCLDY    72  66  83 CALM      30.21R                  
GATLINBURG     CLOUDY    75  63  64 CALM      30.22R                  
MORRISTOWN     PTCLDY    72  61  68 CALM      30.22R                  
JACKSBORO      CLEAR     68  61  77 CALM      30.26R                  
$$

TNZ083-085-099-220300-
SOUTHEAST TENNESSEE
  
CITY           SKY/WX    TMP DP  RH WIND       PRES   REMARKS
CHATTANOOGA    FAIR      76  59  55 CALM      30.21R                  
$$

SKY/WX REPORTED AS FAIR MEANS FEW OR NO CLOUDS BELOW
12 THOUSAND FEET.